"Pseudo-MPEC" for P10QrW3

Created 2019 Aug 15 14:07:07 UT using Find_Orb

Click here for an explanation of pseudo-MPECs

 
 Astrometry: 
     P10QrW3  C2019 08 08s!(%V$gn(fH:y#Astrometryf/4@x!redacted;!_9\bKxb2Y63aF51
     P10QrW3  C2019 08 08oi?]^!I`;d[2xVdSclickWmpbUu:r-s.@4#dhereS`TdIfZ+x3;fF51
     P10QrW3  C2019 08 08LBYw_iryaso-Lag@;Q]eq=Jp*?2qk/*hnsamZAf)AN0`5wZfor*(F51
     P10QrW3 ^C2019 08 11.43594222 39 30.062+05 03 00.55   ~8BKM 21.63GVNEOCP568
     P10QrW3 ^C2019 08 11.43713622 39 29.906+05 03 00.80   ~8BKM 21.52GVNEOCP568
     P10QrW3 ^C2019 08 11.43833322 39 29.746+05 03 01.04   ~8BKM 21.65GVNEOCP568
     P10QrW3 ^C2019 08 12.36858822 37 31.334+05 05 42.62   ~8CHq 21.56GVNEOCP568
     P10QrW3 ^C2019 08 12.37011922 37 31.132+05 05 42.90   ~8CHq 21.38GVNEOCP568
     P10QrW3 ^C2019 08 12.37166622 37 30.923+05 05 43.16   ~8CHq 21.40GVNEOCP568
     P10QrW3 KC2019 08 12qIyisos8\j^EOL9Hg`]b'f*UvDDMXNUPRU?K$l:7_f(RhJmK2tlp291
     P10QrW3 KC2019 08 12)B:MpMU%#-Zv3_B+SYa9yCEexplanationhm89f+vo(kvxR#u98K291
     P10QrW3 KC2019 08 12Qme*'LwpCHc5bCG@q)en')_Xmw)NNP921f086-`SBwx$qp-\i?r(291

Station data:
(291) LPL/Spacewatch II  (N31.961669 W111.599905)  US/Arizona.  Observers J.
   V. Scotti, R. S. McMillan. 1.8-m f/2.7 reflector + CCD.
(568) Mauna Kea  (N19.826116 W155.472200)  US/Hawaii.
(F51) Pan-STARRS 1, Haleakala  (N20.707235 W156.255910)  US/Hawaii.
   Observers N. Primak, A. Schultz, S. Watters, J. Thiel, T. Goggia. Measurer
   PS1 Science Consortium. 1.8-m Ritchey-Chrétien + CCD.

Orbital elements:  P10QrW3
   Perihelion 2018 Dec 26.357564 +/- 1.1 TT =  8:34:53 (JD 2458478.857564)
Epoch 2019 Aug 12.0 TT = JDT 2458707.5   Earth MOID: 0.1289   Ve: 0.0763
M 179.07427498 +/- 0.9              Ma: 0.0033                AutoNEOCP
n   0.78320664 +/- 0.00111          Peri.  208.69709 +/- 0.6
a   1.16560608 +/- 0.0011           Node   299.74331 +/- 0.29
e   0.3442771 +/- 0.00555           Incl.   10.16707 +/- 0.14
P   1.26/459.64d           H 21.1   G  0.15   U  8.2  
q 0.76431457 +/- 0.0066    Q 1.56689760 +/- 0.00643
From 12 observations 2019 Aug. 8-12; mean residual 0".10
Residuals in arcseconds: 
190808 F51  .03-  .07+    190811 568  .01+  .03-    190812 568  .09+  .13-    
190808 F51  .07+  .02+    190811 568  .02-  .01-    190812 291  .10+  .18+    
190808 F51  .04-  .07-    190812 568  .10+  .16-    190812 291  .12-  .03+    
190811 568  .01-  .05-    190812 568  .13+  .13-    190812 291  .21-  .17+    

Ephemerides (geocentric):
Date (UTC) HH   RA              Dec         delta   r     elong  mag " sig PA
---- -- -- --  -------------   -----------  ------ ------ -----  --- ---- ---
2019 08 15 14  22 30 21.593   +05 12 22.68  .58430 1.5668 156.8 21.8 2.12 173
2019 08 15 15  22 30 15.855   +05 12 26.12  .58419 1.5668 156.8 21.8 2.16 173
2019 08 15 16  22 30 10.114   +05 12 29.50  .58407 1.5668 156.8 21.7 2.20 173
2019 08 15 17  22 30 04.368   +05 12 32.85  .58395 1.5668 156.9 21.7 2.25 173
2019 08 15 18  22 29 58.618   +05 12 36.15  .58384 1.5668 156.9 21.7 2.29 173
2019 08 15 19  22 29 52.864   +05 12 39.41  .58372 1.5668 157.0 21.7 2.33 173
2019 08 15 20  22 29 47.106   +05 12 42.62  .58361 1.5668 157.0 21.7 2.37 173
2019 08 15 21  22 29 41.343   +05 12 45.79  .58350 1.5667 157.1 21.7 2.41 173
2019 08 15 22  22 29 35.577   +05 12 48.91  .58338 1.5667 157.1 21.7 2.46 173
2019 08 15 23  22 29 29.807   +05 12 51.99  .58327 1.5667 157.2 21.7 2.50 172
2019 08 16 00  22 29 24.032   +05 12 55.03  .58315 1.5667 157.2 21.7 2.54 172
2019 08 16 01  22 29 18.254   +05 12 58.02  .58304 1.5667 157.2 21.7 2.59 172
2019 08 16 02  22 29 12.471   +05 13 00.97  .58293 1.5667 157.3 21.7 2.63 172
2019 08 16 03  22 29 06.684   +05 13 03.88  .58282 1.5667 157.3 21.7 2.67 172
2019 08 16 04  22 29 00.894   +05 13 06.74  .58271 1.5667 157.4 21.7 2.72 172
2019 08 16 05  22 28 55.099   +05 13 09.55  .58259 1.5667 157.4 21.7 2.76 172
2019 08 16 06  22 28 49.301   +05 13 12.33  .58248 1.5667 157.5 21.7 2.81 172
2019 08 16 07  22 28 43.498   +05 13 15.05  .58237 1.5667 157.5 21.7 2.86 171
2019 08 16 08  22 28 37.692   +05 13 17.74  .58226 1.5667 157.6 21.7 2.90 171
2019 08 16 09  22 28 31.881   +05 13 20.38  .58215 1.5667 157.6 21.7 2.95 171
2019 08 16 10  22 28 26.067   +05 13 22.97  .58204 1.5667 157.6 21.7 2.99 171
2019 08 16 11  22 28 20.248   +05 13 25.53  .58193 1.5667 157.7 21.7 3.04 171
2019 08 16 12  22 28 14.426   +05 13 28.03  .58183 1.5667 157.7 21.7 3.09 171
2019 08 16 13  22 28 08.600   +05 13 30.50  .58172 1.5667 157.8 21.7 3.14 171
2019 08 16 14  22 28 02.770   +05 13 32.92  .58161 1.5667 157.8 21.7 3.18 171
2019 08 16 15  22 27 56.936   +05 13 35.29  .58150 1.5667 157.9 21.7 3.23 171
2019 08 16 16  22 27 51.099   +05 13 37.62  .58139 1.5666 157.9 21.7 3.28 170
2019 08 16 17  22 27 45.257   +05 13 39.91  .58129 1.5666 157.9 21.7 3.33 170
2019 08 16 18  22 27 39.412   +05 13 42.15  .58118 1.5666 158.0 21.7 3.38 170
2019 08 16 19  22 27 33.563   +05 13 44.35  .58107 1.5666 158.0 21.7 3.43 170
2019 08 16 20  22 27 27.710   +05 13 46.50  .58097 1.5666 158.1 21.7 3.48 170
2019 08 16 21  22 27 21.853   +05 13 48.61  .58086 1.5666 158.1 21.7 3.53 170
2019 08 16 22  22 27 15.993   +05 13 50.67  .58076 1.5666 158.1 21.7 3.58 170
2019 08 16 23  22 27 10.128   +05 13 52.69  .58065 1.5666 158.2 21.7 3.63 170
2019 08 17 00  22 27 04.260   +05 13 54.67  .58055 1.5666 158.2 21.7 3.69 170
2019 08 17 01  22 26 58.389   +05 13 56.60  .58044 1.5666 158.3 21.7 3.74 169
2019 08 17 02  22 26 52.513   +05 13 58.49  .58034 1.5666 158.3 21.7 3.79 169
2019 08 17 03  22 26 46.634   +05 14 00.33  .58024 1.5666 158.4 21.7 3.84 169
2019 08 17 04  22 26 40.752   +05 14 02.13  .58013 1.5666 158.4 21.7 3.90 169
2019 08 17 05  22 26 34.865   +05 14 03.89  .58003 1.5666 158.4 21.7 3.95 169
2019 08 17 06  22 26 28.975   +05 14 05.60  .57993 1.5666 158.5 21.7 4.00 169
2019 08 17 07  22 26 23.082   +05 14 07.26  .57983 1.5665 158.5 21.7 4.06 169
2019 08 17 08  22 26 17.184   +05 14 08.88  .57973 1.5665 158.6 21.7 4.11 169
2019 08 17 09  22 26 11.283   +05 14 10.46  .57963 1.5665 158.6 21.7 4.17 169
2019 08 17 10  22 26 05.379   +05 14 11.99  .57952 1.5665 158.7 21.7 4.22 169
2019 08 17 11  22 25 59.471   +05 14 13.48  .57942 1.5665 158.7 21.7 4.28 168
2019 08 17 12  22 25 53.559   +05 14 14.92  .57932 1.5665 158.7 21.7 4.33 168
2019 08 17 13  22 25 47.644   +05 14 16.32  .57922 1.5665 158.8 21.7 4.39 168